Greenville, TX

6:01 PM CST on November 15, 2019 (GMT -0600)
Majors

Weather History for KGVT - October, 2019

Change the Weather History Date:

Monday, October 21, 2019

  Actual Average Record
Temperature  
Mean Temperature 62 °F -  
Max Temperature 73 °F 74 °F 91 °F (2003)
Min Temperature 50 °F 55 °F 46 °F (1999)
Degree Days  
Heating Degree Days 4    
Growing Degree Days 12 (Base 50)    
Moisture  
Dew Point 45 °F    
Average Humidity 54    
Maximum Humidity 100    
Minimum Humidity 22    
Precipitation  
Precipitation 0.20 in - - ()
Sea Level Pressure  
Sea Level Pressure 29.88 in    
Wind  
Wind Speed 9 mph (NW)    
Max Wind Speed 18 mph    
Max Gust Speed 37 mph    
Visibility 10 miles    
Events Rain , Thunderstorm    
Averages and records for this station are not official NWS values.
T = Trace of Precipitation, MM = Missing Value Source: NWS Daily Summary

Daily Weather History Graph

Daily Weather History Graph

Search for Another Location

Airport or City:

Astronomy

Oct. 21, 2019 Rise Set
Actual Time 7:33 AM CDT 6:44 PM CDT
Civil Twilight 7:08 AM CDT 7:09 PM CDT
Nautical Twilight 6:39 AM CDT 7:38 PM CDT
Astronomical Twilight 6:10 AM CDT 8:06 PM CDT
Moon 12:07 AM CDT (10/21) 2:41 PM CDT (10/21)
Length of Visible Light 12h 01m
Length of Day
11h 11m
Waning Gibbous, 48% of the Moon is Illuminated
Oct 21
Waning Gibbous
Oct 27
New
Nov 4
First Quarter
Nov 12
Full
Nov 19
Last Quarter

Hourly Weather History & Observations

Time (CDT) Temp. Dew Point Humidity Pressure Visibility Wind Dir Wind Speed Gust Speed Precip Events Conditions
12:15 AM 71.6 °F 64.4 °F 78% 29.57 in 10.0 mi SE 12.7 mph - N/A   Overcast
12:35 AM 73.4 °F 66.2 °F 78% 29.57 in 10.0 mi SE 12.7 mph - N/A   Overcast
12:55 AM 73.4 °F 68.0 °F 83% 29.57 in 10.0 mi SE 11.5 mph - 0.01 in   Overcast
1:10 AM 71.6 °F 64.4 °F 78% 29.67 in 4.0 mi WNW 18.4 mph 36.8 mph N/A Rain , Thunderstorm Heavy Thunderstorms and Rain
1:35 AM 68.0 °F 64.4 °F 88% 29.67 in 2.5 mi SW 12.7 mph - 0.01 in Rain , Thunderstorm Heavy Thunderstorms and Rain
1:55 AM 68.0 °F 68.0 °F 100% 29.69 in 2.5 mi SSW 12.7 mph 17.3 mph 0.01 in Rain , Thunderstorm Heavy Thunderstorms and Rain
2:15 AM 68.0 °F - N/A% 29.67 in 7.0 mi West 11.5 mph 16.1 mph 0.01 in Rain , Thunderstorm Light Thunderstorms and Rain
2:35 AM 68.0 °F 68.0 °F 100% 29.69 in 7.0 mi West 6.9 mph - 0.01 in Rain , Thunderstorm Rain
2:55 AM 69.8 °F 68.0 °F 94% 29.71 in 10.0 mi West 11.5 mph 18.4 mph 0.02 in Rain , Thunderstorm Light Thunderstorms and Rain
3:15 AM 69.8 °F 64.4 °F 83% 29.70 in 10.0 mi NW 6.9 mph - N/A Thunderstorm Mostly Cloudy
3:35 AM 68.0 °F 62.6 °F 83% 29.74 in 10.0 mi WNW 5.8 mph - N/A   Scattered Clouds
3:55 AM 68.0 °F 59.0 °F 73% 29.73 in 10.0 mi North 5.8 mph - 0.01 in   Scattered Clouds
4:15 AM 66.2 °F 59.0 °F 78% 29.73 in 10.0 mi NNW 4.6 mph - N/A Thunderstorm Scattered Clouds
4:35 AM 64.4 °F 55.4 °F 73% 29.73 in 10.0 mi NNW 8.1 mph - N/A Thunderstorm Clear
4:55 AM 62.6 °F 55.4 °F 77% 29.74 in 10.0 mi Calm Calm - 0.01 in   Clear
5:15 AM 62.6 °F 53.6 °F 72% 29.76 in 10.0 mi NW 6.9 mph - N/A   Clear
5:35 AM 62.6 °F 51.8 °F 68% 29.77 in 10.0 mi NW 16.1 mph 20.7 mph N/A   Clear
5:55 AM 62.6 °F 50.0 °F 63% 29.78 in 10.0 mi NNW 10.4 mph 16.1 mph N/A   Clear
6:15 AM 60.8 °F 44.6 °F 55% 29.80 in 10.0 mi NNW 9.2 mph - N/A   Clear
6:55 AM 59.0 °F 44.6 °F 59% 29.82 in 10.0 mi Calm Calm - N/A   Clear
7:15 AM 59.0 °F 44.6 °F 59% 29.84 in 10.0 mi Calm Calm - N/A   Clear
7:35 AM 57.2 °F 44.6 °F 63% 29.84 in 10.0 mi NNW 6.9 mph - N/A   Clear
7:55 AM 55.4 °F 42.8 °F 63% 29.84 in 10.0 mi NNW 5.8 mph - N/A   Clear
8:15 AM 57.2 °F 44.6 °F 63% 29.86 in 10.0 mi North 4.6 mph - N/A   Clear
8:35 AM 59.0 °F 42.8 °F 55% 29.87 in 10.0 mi North 8.1 mph - N/A   Clear
8:55 AM 60.8 °F 41.0 °F 48% 29.88 in 10.0 mi NNW 10.4 mph - N/A   Clear
9:15 AM 62.6 °F 41.0 °F 45% 29.88 in 10.0 mi NNW 9.2 mph - N/A   Clear
9:35 AM 64.4 °F 39.2 °F 40% 29.89 in 10.0 mi North 16.1 mph 21.9 mph N/A   Clear
9:55 AM 64.4 °F 35.6 °F 34% 29.90 in 10.0 mi North 18.4 mph 23.0 mph N/A   Clear
10:15 AM 66.2 °F 37.4 °F 35% 29.91 in 10.0 mi NNW 12.7 mph 19.6 mph N/A   Clear
10:35 AM 66.2 °F 33.8 °F 30% 29.92 in 10.0 mi NNW 15.0 mph 21.9 mph N/A   Clear
10:55 AM 68.0 °F 35.6 °F 30% 29.92 in 10.0 mi North 15.0 mph 19.6 mph N/A   Clear
11:15 AM 69.8 °F 33.8 °F 27% 29.92 in 10.0 mi NNW 9.2 mph - N/A   Clear
11:35 AM 69.8 °F 33.8 °F 27% 29.93 in 10.0 mi North 6.9 mph - N/A   Clear
11:55 AM 69.8 °F 35.6 °F 28% 29.93 in 10.0 mi NNW 6.9 mph - N/A   Clear
12:15 PM 71.6 °F 33.8 °F 25% 29.93 in 10.0 mi North 8.1 mph - N/A   Clear
12:35 PM 69.8 °F 33.8 °F 27% 29.93 in 10.0 mi NNW 11.5 mph - 0.01 in   Clear
12:55 PM 71.6 °F 33.8 °F 25% 29.93 in 10.0 mi NNW 5.8 mph - 0.01 in   Clear
1:15 PM 71.6 °F 33.8 °F 25% 29.92 in 10.0 mi NNW 10.4 mph - 0.01 in   Clear
1:35 PM 71.6 °F 35.6 °F 27% 29.92 in 10.0 mi NNW 10.4 mph - 0.01 in   Clear
2:15 PM 73.4 °F 33.8 °F 23% 29.91 in 10.0 mi North 9.2 mph 18.4 mph 0.01 in   Clear
2:35 PM 73.4 °F 33.8 °F 23% 29.91 in 10.0 mi NW 9.2 mph - 0.02 in   Clear
2:55 PM 73.4 °F 33.8 °F 23% 29.91 in 10.0 mi NW 8.1 mph - 0.03 in   Clear
3:15 PM 73.4 °F 32.0 °F 22% 29.90 in 10.0 mi WNW 5.8 mph - N/A   Clear
3:35 PM 73.4 °F 33.8 °F 23% 29.91 in 10.0 mi West 9.2 mph - 0.01 in   Clear
3:55 PM 73.4 °F 33.8 °F 23% 29.90 in 10.0 mi NNW 5.8 mph - 0.02 in   Clear
4:15 PM 73.4 °F 35.6 °F 25% 29.91 in 10.0 mi West 8.1 mph - N/A   Clear
4:35 PM 73.4 °F 35.6 °F 25% 29.91 in 10.0 mi WNW 5.8 mph - 0.01 in   Clear
4:55 PM 73.4 °F 33.8 °F 23% 29.91 in 10.0 mi NNW 6.9 mph - 0.02 in   Clear
5:15 PM 73.4 °F 33.8 °F 23% 29.92 in 10.0 mi West 3.5 mph - N/A   Clear
5:35 PM 71.6 °F 35.6 °F 27% 29.92 in 10.0 mi West 5.8 mph - 0.01 in   Clear
5:55 PM 71.6 °F 33.8 °F 25% 29.92 in 10.0 mi West 4.6 mph - 0.01 in   Clear
6:15 PM 71.6 °F 35.6 °F 27% 29.93 in 10.0 mi WNW 3.5 mph - N/A   Clear
6:35 PM 69.8 °F 37.4 °F 31% 29.93 in 10.0 mi Calm Calm - N/A   Clear
6:55 PM 68.0 °F 39.2 °F 35% 29.95 in 10.0 mi West 3.5 mph - 0.01 in   Clear
7:15 PM 68.0 °F 39.2 °F 35% 29.96 in 10.0 mi West 3.5 mph - N/A   Clear
7:35 PM 62.6 °F 44.6 °F 52% 29.98 in 10.0 mi Calm Calm - 0.01 in   Clear
7:55 PM 60.8 °F 46.4 °F 59% 30.00 in 10.0 mi Calm Calm - 0.01 in   Clear
8:15 PM 55.4 °F 46.4 °F 72% 30.01 in 10.0 mi Calm Calm - N/A   Clear
8:35 PM 53.6 °F 46.4 °F 77% 30.02 in 10.0 mi Calm Calm - 0.01 in   Clear
8:55 PM 55.4 °F 48.2 °F 77% 30.03 in 10.0 mi Calm Calm - 0.01 in   Clear
9:15 PM 53.6 °F 46.4 °F 77% 30.04 in 10.0 mi Calm Calm - N/A   Clear
9:35 PM 53.6 °F 46.4 °F 77% 30.04 in 10.0 mi Calm Calm - 0.01 in   Clear
9:55 PM 53.6 °F 46.4 °F 77% 30.05 in 10.0 mi Calm Calm - 0.01 in   Clear
10:15 PM 51.8 °F 46.4 °F 82% 30.06 in 10.0 mi Calm Calm - N/A   Clear
10:35 PM 51.8 °F 46.4 °F 82% 30.06 in 10.0 mi Calm Calm - N/A   Clear
10:55 PM 50.0 °F 46.4 °F 87% 30.06 in 10.0 mi Calm Calm - N/A   Clear
11:15 PM 50.0 °F 46.4 °F 87% 30.07 in 10.0 mi Calm Calm - N/A   Clear
11:35 PM 50.0 °F 46.4 °F 87% 30.07 in 10.0 mi Calm Calm - N/A   Clear
11:55 PM 50.0 °F 46.4 °F 87% 30.07 in 10.0 mi Calm Calm - N/A   Clear